TimeCST,TemperatureF,Dew PointF,Humidity,Sea Level PressureIn,VisibilityMPH,Wind Direction,Wind SpeedMPH,Gust SpeedMPH,PrecipitationIn,Events,Conditions,WindDirDegrees,DateUTC
12:53 AM,59.0,55.9,90,29.86,7.0,South,15.0,-,N/A,,Mostly Cloudy,170,2013-01-28 06:53:00
1:53 AM,61.0,57.0,87,29.86,9.0,South,16.1,-,N/A,,Mostly Cloudy,170,2013-01-28 07:53:00
2:53 AM,62.1,57.9,86,29.86,9.0,South,10.4,-,N/A,,Mostly Cloudy,170,2013-01-28 08:53:00
3:53 AM,66.0,61.0,84,29.84,10.0,South,17.3,25.3,N/A,,Mostly Cloudy,190,2013-01-28 09:53:00
4:53 AM,64.9,61.0,87,29.85,10.0,South,16.1,23.0,N/A,,Scattered Clouds,190,2013-01-28 10:53:00
5:53 AM,64.9,61.0,87,29.85,10.0,South,18.4,-,N/A,,Partly Cloudy,190,2013-01-28 11:53:00
6:53 AM,64.9,61.0,87,29.87,10.0,South,15.0,23.0,N/A,,Scattered Clouds,190,2013-01-28 12:53:00
7:53 AM,64.9,61.0,87,29.88,8.0,South,15.0,25.3,N/A,,Scattered Clouds,190,2013-01-28 13:53:00
8:53 AM,66.9,62.1,84,29.89,9.0,South,18.4,26.5,N/A,,Scattered Clouds,190,2013-01-28 14:53:00
9:38 AM,69.8,62.6,78,29.90,9.0,South,21.9,31.1,N/A,,Mostly Cloudy,190,2013-01-28 15:38:00
9:53 AM,69.1,62.1,78,29.89,9.0,South,19.6,32.2,N/A,,Mostly Cloudy,190,2013-01-28 15:53:00
10:53 AM,70.0,62.1,76,29.90,10.0,South,20.7,27.6,N/A,,Overcast,190,2013-01-28 16:53:00
11:53 AM,72.0,62.1,71,29.88,10.0,South,16.1,32.2,N/A,,Overcast,180,2013-01-28 17:53:00
12:53 PM,73.0,61.0,66,29.83,10.0,South,19.6,28.8,N/A,,Mostly Cloudy,180,2013-01-28 18:53:00
1:53 PM,73.0,61.0,66,29.80,10.0,South,17.3,24.2,N/A,,Overcast,170,2013-01-28 19:53:00
2:53 PM,75.0,60.1,60,29.78,10.0,South,23.0,31.1,N/A,,Overcast,170,2013-01-28 20:53:00
3:53 PM,73.9,61.0,64,29.76,10.0,South,20.7,28.8,N/A,,Mostly Cloudy,170,2013-01-28 21:53:00
4:53 PM,73.0,61.0,66,29.76,10.0,South,24.2,34.5,N/A,,Overcast,170,2013-01-28 22:53:00
5:53 PM,71.1,61.0,70,29.76,9.0,South,16.1,27.6,N/A,,Mostly Cloudy,170,2013-01-28 23:53:00
6:53 PM,70.0,62.1,76,29.76,9.0,South,18.4,27.6,N/A,,Scattered Clouds,170,2013-01-29 00:53:00
7:53 PM,69.1,62.1,78,29.75,9.0,SSE,18.4,-,N/A,,Partly Cloudy,160,2013-01-29 01:53:00
8:53 PM,69.1,62.1,78,29.75,9.0,South,16.1,-,N/A,,Partly Cloudy,170,2013-01-29 02:53:00
9:53 PM,70.0,62.1,76,29.75,10.0,SSE,17.3,-,N/A,,Mostly Cloudy,160,2013-01-29 03:53:00
10:53 PM,69.1,62.1,78,29.73,10.0,South,18.4,-,N/A,,Scattered Clouds,170,2013-01-29 04:53:00
11:53 PM,68.0,61.0,78,29.71,10.0,South,15.0,-,N/A,,Mostly Cloudy,170,2013-01-29 05:53:00